View from above orbital plane
|
View from above satellite
|
Ground track
|
The orbit data is extracted from the following two-line orbital elements,
1 37227U 10062F 21027.49325955 .00000143 00000-0 26615-4 0 9996
2 37227 71.9679 188.7029 0017212 209.9023 150.1159 14.79709493 74540
Epoch (UTC): | 27 January 2021 11:50:17 |
Eccentricity: | 0.0017212 |
inclination: | 71.9679° |
perigee height: | 618 km |
apogee height: | 642 km |
right ascension of ascending node: | 188.7029° |
argument of perigee: | 209.9023° |
revolutions per day: | 14.79709493 |
mean anomaly at epoch: | 150.1159° |
orbit number at epoch: | 7454 |
The dashed part of the orbit path shows where the satellite is in the earth's shadow,
|
|